Simultaneous Nadir Overpasses (SNOs) Predictions

Prediction of SNOs between LANDSAT-8 and NOAA-19 Satellite Orbit:

Table of predicted SNOs for the next 14.0 days since TLE Epoch: 10/26/2016
Index Date (LANDSAT-8) Time (LANDSAT-8) Lat,Lon (LANDSAT-8) SZA (LANDSAT-8 ) Date (NOAA-19) Time (NOAA-19) Lat,Lon (NOAA-19) SZA (NOAA-19 ) Distance(km) Time Diff (sec)
1 10/27/2016 06:50:48 -75.75, -95.12 91.10 10/27/2016 06:49:41 -75.80, -98.04 91.19 79.82 67
2 10/27/2016 07:40:24 75.24, 71.06 88.34 10/27/2016 07:40:35 75.26, 70.98 88.36 3.15 11
3 10/29/2016 12:24:40 75.32, 0.21 89.16 10/29/2016 12:23:34 75.33, 0.07 89.15 4.03 66
4 10/29/2016 13:14:09 -75.25, 167.65 90.91 10/29/2016 13:14:28 -75.25, 167.59 90.91 1.78 19
5 10/31/2016 17:58:26 -75.28, 96.66 90.17 10/31/2016 17:57:26 -75.29, 96.77 90.16 3.56 60
6 10/31/2016 18:47:52 75.25, -95.77 89.82 10/31/2016 18:48:31 75.22, -95.79 89.80 3.20 39
7 11/02/2016 23:32:08 75.32,-166.64 90.60 11/02/2016 23:31:30 75.30,-166.73 90.57 3.36 38
8 11/03/2016 00:21:37 -75.26, 0.81 89.47 11/03/2016 00:22:24 -75.25, 0.72 89.48 2.70 47
9 11/05/2016 05:05:54 -75.27, -70.21 88.78 11/05/2016 05:05:22 -75.29, -70.11 88.76 3.45 32
10 11/05/2016 05:55:20 75.24, 97.35 91.20 11/05/2016 05:56:28 75.26, 97.23 91.22 3.59 68
11 11/07/2016 10:39:36 75.31, 26.45 91.92 11/07/2016 10:39:26 75.30, 26.41 91.91 1.29 10
